When you browse on this site, cookies collect data to enhance your experience and personalize the content and advertising you see.
Visit our Privacy Policy to learn more. By continuing to use the site, you agree to this use of cookies and data.

Meteo pe oră la Dzierszyn

Astăzi, 28 Septembrie, Luni

Timp Temperatura Precipitaţii Vânt Presiune Umiditate
00:00 +8°C° 0 mm 2 m/s 740 mmHg 73%
01:00 +8°C° 0 mm 2 m/s 740 mmHg 74%
02:00 +7°C° 0 mm 2 m/s 740 mmHg 76%
03:00 +7°C° 0 mm 2 m/s 740 mmHg 79%
04:00 +6°C° 0 mm 2 m/s 740 mmHg 81%
05:00 +7°C° 0 mm 3 m/s 740 mmHg 80%
06:00 +8°C° 0 mm 3 m/s 740 mmHg 80%
07:00 +8°C° 0 mm 4 m/s 740 mmHg 79%
08:00 +10°C° 0 mm 4 m/s 740 mmHg 73%
09:00 +12°C° 0 mm 4 m/s 740 mmHg 67%
10:00 +13°C° 0 mm 5 m/s 740 mmHg 60%
11:00 +14°C° 0 mm 4 m/s 740 mmHg 60%
12:00 +15°C° 0 mm 4 m/s 739 mmHg 60%
13:00 +15°C° 0 mm 4 m/s 739 mmHg 59%
14:00 +17°C° 0 mm 4 m/s 739 mmHg 61%
15:00 +17°C° 0 mm 4 m/s 739 mmHg 63%
16:00 +16°C° 0 mm 5 m/s 739 mmHg 64%
17:00 +15°C° 0 mm 4 m/s 739 mmHg 68%
18:00 +15°C° 0 mm 4 m/s 739 mmHg 73%
19:00 +14°C° 0 mm 3 m/s 739 mmHg 77%
20:00 +14°C° 0 mm 3 m/s 739 mmHg 80%
21:00 +14°C° 0 mm 2 m/s 739 mmHg 82%
22:00 +14°C° 0 mm 1 m/s 739 mmHg 84%
23:00 +14°C° 0.1 mm 1 m/s 738 mmHg 86%

Mâine, 29 Septembrie, Marţi

Timp Temperatura Precipitaţii Vânt Presiune Umiditate
00:00 +14°C° 0.1 mm 1 m/s 738 mmHg 87%
01:00 +13°C° 0.1 mm 1 m/s 738 mmHg 88%
02:00 +13°C° 0 mm 1 m/s 738 mmHg 89%
03:00 +13°C° 0 mm 1 m/s 738 mmHg 89%
04:00 +13°C° 0 mm 1 m/s 738 mmHg 89%
05:00 +13°C° 0.1 mm 1 m/s 738 mmHg 89%
06:00 +12°C° 0.1 mm 0 m/s 738 mmHg 90%
07:00 +12°C° 0.1 mm 0 m/s 738 mmHg 90%
08:00 +12°C° 0.3 mm 0 m/s 738 mmHg 90%
09:00 +13°C° 0.3 mm 0 m/s 738 mmHg 91%
10:00 +14°C° 0.3 mm 1 m/s 738 mmHg 91%
11:00 +14°C° 0.5 mm 1 m/s 738 mmHg 91%
12:00 +14°C° 0.5 mm 1 m/s 738 mmHg 92%
13:00 +14°C° 0.5 mm 2 m/s 738 mmHg 92%
14:00 +14°C° 0.2 mm 2 m/s 738 mmHg 92%
15:00 +14°C° 0.2 mm 2 m/s 738 mmHg 92%
16:00 +14°C° 0.2 mm 2 m/s 738 mmHg 93%
17:00 +13°C° 0 mm 2 m/s 738 mmHg 94%
18:00 +13°C° 0 mm 2 m/s 739 mmHg 94%
19:00 +13°C° 0 mm 1 m/s 739 mmHg 95%
20:00 +13°C° 0 mm 1 m/s 739 mmHg 96%
21:00 +13°C° 0 mm 1 m/s 739 mmHg 96%
22:00 +13°C° 0 mm 1 m/s 739 mmHg 96%
23:00 +13°C° 0 mm 2 m/s 739 mmHg 96%

Poimâine, 30 Septembrie, Miercuri

Timp Temperatura Precipitaţii Vânt Presiune Umiditate
00:00 +13°C° 0 mm 2 m/s 739 mmHg 96%
01:00 +13°C° 0 mm 2 m/s 739 mmHg 96%
02:00 +13°C° 0.1 mm 2 m/s 738 mmHg 96%
03:00 +13°C° 0.1 mm 2 m/s 738 mmHg 95%
04:00 +13°C° 0.1 mm 2 m/s 738 mmHg 95%
05:00 +12°C° 0.9 mm 3 m/s 738 mmHg 95%
06:00 +12°C° 0.9 mm 3 m/s 738 mmHg 94%
07:00 +12°C° 0.9 mm 4 m/s 738 mmHg 94%
08:00 +12°C° 0.1 mm 4 m/s 737 mmHg 93%
09:00 +12°C° 0.1 mm 4 m/s 737 mmHg 91%
10:00 +12°C° 0.1 mm 5 m/s 737 mmHg 90%
11:00 +12°C° 1.1 mm 5 m/s 737 mmHg 91%
12:00 +12°C° 1.1 mm 5 m/s 737 mmHg 92%
13:00 +11°C° 1.1 mm 6 m/s 737 mmHg 93%
14:00 +12°C° 1.4 mm 5 m/s 737 mmHg 93%
15:00 +12°C° 1.4 mm 4 m/s 736 mmHg 94%
16:00 +12°C° 1.4 mm 4 m/s 736 mmHg 94%
17:00 +12°C° 0.7 mm 4 m/s 736 mmHg 94%
18:00 +12°C° 0.7 mm 4 m/s 737 mmHg 93%
19:00 +12°C° 0.7 mm 3 m/s 737 mmHg 93%
20:00 +12°C° 0 mm 3 m/s 736 mmHg 93%
21:00 +12°C° 0 mm 3 m/s 736 mmHg 93%
22:00 +12°C° 0 mm 3 m/s 736 mmHg 93%
23:00 +12°C° 0.1 mm 3 m/s 736 mmHg 94%

1 Octombrie, Joi

Timp Temperatura Precipitaţii Vânt Presiune Umiditate
00:00 +12°C° 0.1 mm 3 m/s 736 mmHg 94%
01:00 +12°C° 0.1 mm 3 m/s 736 mmHg 94%
02:00 +11°C° 0 mm 3 m/s 736 mmHg 94%
03:00 +11°C° 0 mm 3 m/s 735 mmHg 94%
04:00 +10°C° 0 mm 3 m/s 735 mmHg 94%
05:00 +10°C° 0 mm 3 m/s 735 mmHg 93%
06:00 +10°C° 0 mm 3 m/s 735 mmHg 92%
07:00 +10°C° 0 mm 3 m/s 735 mmHg 90%
08:00 +12°C° 0 mm 3 m/s 735 mmHg 84%
09:00 +13°C° 0 mm 3 m/s 735 mmHg 78%
10:00 +14°C° 0 mm 3 m/s 735 mmHg 72%
11:00 +14°C° 0 mm 3 m/s 735 mmHg 73%
12:00 +13°C° 0 mm 3 m/s 734 mmHg 74%
13:00 +13°C° 0 mm 3 m/s 734 mmHg 75%
14:00 +14°C° 0 mm 2 m/s 734 mmHg 76%
15:00 +14°C° 0 mm 2 m/s 734 mmHg 78%
16:00 +14°C° 0 mm 2 m/s 734 mmHg 79%
17:00 +14°C° 0 mm 2 m/s 734 mmHg 82%
18:00 +13°C° 0 mm 2 m/s 734 mmHg 85%
19:00 +13°C° 0 mm 1 m/s 734 mmHg 88%
20:00 +13°C° 0 mm 2 m/s 734 mmHg 90%
21:00 +12°C° 0 mm 2 m/s 734 mmHg 92%
22:00 +12°C° 0 mm 2 m/s 734 mmHg 94%
23:00 +10°C° 0 mm 2 m/s 733 mmHg 95%

2 Octombrie, Vineri

Timp Temperatura Precipitaţii Vânt Presiune Umiditate
00:00 +10°C° 0 mm 2 m/s 733 mmHg 96%
01:00 +10°C° 0 mm 2 m/s 733 mmHg 96%
02:00 +11°C° 0 mm 1 m/s 733 mmHg 96%
03:00 +10°C° 0 mm 1 m/s 733 mmHg 96%
04:00 +10°C° 0 mm 1 m/s 733 mmHg 96%
05:00 +11°C° 0 mm 1 m/s 732 mmHg 95%
06:00 +11°C° 0 mm 1 m/s 732 mmHg 94%
07:00 +11°C° 0 mm 1 m/s 732 mmHg 94%
08:00 +12°C° 0 mm 2 m/s 732 mmHg 90%
09:00 +13°C° 0 mm 2 m/s 732 mmHg 86%
10:00 +14°C° 0 mm 2 m/s 732 mmHg 83%
11:00 +15°C° 0 mm 2 m/s 732 mmHg 79%
12:00 +16°C° 0 mm 3 m/s 732 mmHg 75%
13:00 +17°C° 0 mm 3 m/s 732 mmHg 71%
14:00 +17°C° 0 mm 3 m/s 732 mmHg 71%
15:00 +17°C° 0 mm 2 m/s 732 mmHg 72%
16:00 +17°C° 0 mm 2 m/s 732 mmHg 73%
17:00 +15°C° 0 mm 2 m/s 732 mmHg 78%
18:00 +14°C° 0 mm 2 m/s 732 mmHg 84%
19:00 +13°C° 0 mm 2 m/s 732 mmHg 90%
20:00 +13°C° 0 mm 2 m/s 732 mmHg 90%
21:00 +12°C° 0 mm 2 m/s 732 mmHg 90%
22:00 +11°C° 0 mm 3 m/s 732 mmHg 90%
23:00 +11°C° 0 mm 3 m/s 732 mmHg 91%

3 Octombrie, Sâmbătă

Timp Temperatura Precipitaţii Vânt Presiune Umiditate
00:00 +11°C° 0 mm 3 m/s 732 mmHg 92%
01:00 +11°C° 0 mm 3 m/s 731 mmHg 93%
02:00 +12°C° 0 mm 3 m/s 731 mmHg 94%
03:00 +12°C° 0 mm 3 m/s 731 mmHg 94%
04:00 +12°C° 0 mm 3 m/s 731 mmHg 94%
05:00 +13°C° 0.1 mm 4 m/s 730 mmHg 92%
06:00 +13°C° 0.1 mm 4 m/s 730 mmHg 91%
07:00 +13°C° 0.1 mm 5 m/s 730 mmHg 90%
08:00 +15°C° 0 mm 5 m/s 730 mmHg 85%
09:00 +16°C° 0 mm 6 m/s 730 mmHg 79%
10:00 +17°C° 0 mm 7 m/s 730 mmHg 74%
11:00 +18°C° 0 mm 7 m/s 730 mmHg 69%
12:00 +20°C° 0 mm 7 m/s 730 mmHg 64%
13:00 +21°C° 0 mm 8 m/s 729 mmHg 60%
14:00 +21°C° 0 mm 8 m/s 729 mmHg 61%
15:00 +20°C° 0 mm 8 m/s 729 mmHg 63%
16:00 +18°C° 0 mm 8 m/s 729 mmHg 65%
17:00 +18°C° 0 mm 8 m/s 729 mmHg 67%
18:00 +18°C° 0 mm 8 m/s 729 mmHg 69%
19:00 +18°C° 0 mm 7 m/s 729 mmHg 71%
20:00 +18°C° 0 mm 8 m/s 729 mmHg 69%
21:00 +18°C° 0 mm 8 m/s 728 mmHg 67%
22:00 +19°C° 0 mm 9 m/s 728 mmHg 65%
23:00 +18°C° 0.1 mm 8 m/s 728 mmHg 68%
Arată mai mult